Location: Newark
(49.5667°N, 1.1667°E)
Time: 16:46:56
(UTC+00:00)

Envisat - Visible Passes

Search period start: 01 October 2020 00:00
Search period end: 11 October 2020 00:00
Orbit: 764 x 766 km, 98.1° (Epoch: 01 October)

Date Brightness Start Highest point End Pass type
(mag) Time Alt. Az. Time Alt. Az. Time Alt. Az.
01 Oct 6.1 04:47:44 10° NE 04:51:07 18° E 04:54:27 10° SE visible
02 Oct 6.7 18:51:14 10° W 18:52:37 11° W 18:54:02 10° WNW visible
03 Oct 5.4 05:12:27 10° NE 05:16:50 28° E 05:21:10 10° SSE visible
03 Oct 5.9 18:11:20 10° SW 18:15:19 23° W 18:19:19 10° NW visible
04 Oct 6.3 04:36:56 10° NE 04:39:35 14° E 04:42:14 10° ESE visible
05 Oct 6.4 18:38:29 10° WSW 18:41:05 14° W 18:43:42 10° NW visible
06 Oct 5.8 05:01:19 10° NE 05:05:21 23° E 05:09:21 10° SE visible
06 Oct 5.5 17:59:31 10° SSW 18:03:50 28° W 18:08:12 10° NW visible
07 Oct 6.6 04:26:33 10° ENE 04:28:03 11° E 04:29:33 10° ESE visible
08 Oct 4.8 05:26:17 10° NNE 05:31:01 37° E 05:35:42 10° SSE visible
08 Oct 6.2 18:26:15 10° SW 18:29:34 17° W 18:32:54 10° NW visible
09 Oct 6.1 04:50:17 10° NE 04:53:51 19° E 04:57:25 10° SE visible
09 Oct 5.0 17:47:47 10° SSW 17:52:23 34° W 17:57:01 10° NNW visible
10 Oct 6.8 18:55:11 10° W 18:55:24 10° W 18:55:37 10° W visible
